Location: Frydek-Mistek
(49.6830°N, 18.3330°E)
Time: 08:38:52
(UTC+01:00)

Courier 1B Rocket - All Passes

Search period start: 09 December 2016 00:00
Search period end: 19 December 2016 00:00
Orbit: 921 x 1202 km, 28.3° (Epoch: 08 December)

Date Brightness Start Highest point End Pass type
(mag) Time Alt. Az. Time Alt. Az. Time Alt. Az.
09 Dec - 00:26:38 10° SSW 00:29:59 13° S 00:33:21 10° SSE night (unlit)
09 Dec - 21:35:37 10° S 21:37:10 11° SSE 21:38:46 10° SSE night (unlit)
09 Dec - 23:25:45 10° SSW 23:29:16 14° S 23:32:50 10° SSE night (unlit)
10 Dec - 22:25:16 10° SSW 22:28:34 13° S 22:31:55 10° SSE night (unlit)
11 Dec - 00:18:13 10° SSW 00:20:41 12° SSW 00:23:11 10° S night (unlit)
11 Dec - 21:25:17 10° S 21:27:53 12° S 21:30:31 10° SSE night (unlit)
11 Dec - 23:16:54 10° SSW 23:19:59 13° S 23:23:07 10° SSE night (unlit)
12 Dec - 22:16:07 10° SSW 22:19:18 13° S 22:22:31 10° SSE night (unlit)
13 Dec - 21:15:47 10° SSW 21:18:37 13° S 21:21:31 10° SSE night (unlit)
13 Dec - 23:08:45 10° SSW 23:10:42 11° S 23:12:40 10° S night (unlit)
14 Dec - 20:16:03 10° S 20:17:59 11° S 20:19:57 10° SSE visible
14 Dec - 22:07:27 10° SSW 22:10:02 12° S 22:12:39 10° SSE night (unlit)
15 Dec - 21:06:46 10° SSW 21:09:23 12° S 21:12:03 10° SSE visible
16 Dec - 20:06:34 10° SSW 20:08:46 12° S 20:10:58 10° SSE visible
16 Dec - 22:00:02 10° SSW 22:00:47 10° S 22:01:32 10° S night (unlit)
17 Dec - 19:07:21 10° S 19:08:10 10° S 19:09:00 10° SSE visible
17 Dec - 20:58:23 10° SSW 21:00:09 11° S 21:01:58 10° S visible
18 Dec - 19:57:42 10° SSW 19:59:33 11° S 20:01:26 10° SSE visible
